Flag for Belgium Weather past 2 weeks in Ghent, Belgium

Now
77 °F

Pleasantly warm.


Feels Like: 78 °F
Forecast: 61 / 80 °F
Wind: 6 mph from South

Location: Munte

Current Time: Aug 5, 2015 at 3:11:46 PM

Latest Report: Aug 5, 2015 at 2:00 PM


Visibility: 13 mi

Pressure: 29.98 "Hg

Humidity: 37%

Dew point: 49 °F

Location of GhentLocation

Historic Weather in Ghent — Graph

°F

Ghent temperature yesterday

Maximum temperature yesterday: 72 °F (at 4:00 PM)
Minimum temperature yesterday: 60 °F (at 10:00 AM)
Average temperature yesterday: 65 °F

Past Weeks' High & Low Weather Summary

 TemperatureHumidityPressure
High85 °F (Aug 3, 4:00 PM)100% (Jul 31, 7:00 AM)30.17 "Hg (Jul 31, 7:00 AM)
Low44 °F (Jul 31, 6:00 AM)27% (Aug 2, 6:00 PM)29.50 "Hg (Jul 25, 3:00 AM)
Average63 °F70%29.92 "Hg
* Reported Jul 21 2:00 PM — Aug 5 2:00 PM, Ghent, Weather by CustomWeather, © 2015

Note: Actual official high and low records may vary slightly from our data, if they occured in-between our weather recording intervals... More about our weather records

Advertising

Ghent weather history for previous 24 hours

 ConditionsComfort  
Time TempWeatherWind HumidityBarometerVisibility
2:00 PM
Wed, Aug 5
77 °FPleasantly warm.6 mph37%29.98 "Hg12 mi
1:00 PM77 °FPartly sunny.5 mph40%29.99 "Hg16 mi
12:00 PM73 °FScattered clouds.3 mph49%30.02 "Hg16 mi
11:00 AM70 °FScattered clouds.2 mph54%30.02 "Hg16 mi
10:00 AM67 °FScattered clouds.3 mph51%30.05 "Hg16 mi
9:00 AM64 °FScattered clouds.2 mph55%30.06 "Hg16 mi
8:00 AM59 °FPartly sunny.2 mph67%30.05 "Hg16 mi
7:00 AM55 °FPartly sunny.2 mph75%30.06 "Hg12 mi
5:00 AM56 °FCool.N/A72%30.07 "Hg12 mi
4:00 AM56 °FCool.N/A70%30.07 "Hg12 mi
3:00 AM56 °FCool.2 mph71%30.07 "Hg12 mi
2:00 AM55 °FCool.2 mph72%30.08 "Hg12 mi
1:00 AM56 °FCool.2 mph70%30.08 "Hg12 mi
12:00 AM57 °FCool.N/A68%30.08 "Hg12 mi
10:00 PM
Tue, Aug 4
61 °FRefreshingly cool.2 mph58%30.07 "Hg12 mi
9:00 PM64 °FMild.3 mph51%30.06 "Hg12 mi
8:00 PM68 °FMild.6 mph40%30.05 "Hg12 mi
7:00 PM70 °FMild.6 mph45%30.03 "Hg12 mi
6:00 PM69 °FMild.6 mph44%30.02 "Hg12 mi
5:00 PM72 °FMild.6 mph40%30.01 "Hg12 mi
4:00 PM72 °FMild.7 mph44%29.99 "Hg12 mi
3:00 PM70 °FMild.6 mph50%29.99 "Hg12 mi
Weather by CustomWeather, © 2015

See weather overviewHow to use our weather pages